This is the latest recevied weather packets stored in our database for station/object VR2HK-13. If no packets are shown the sender has not sent any weather packets the latest 10 day(s).
| Time | Temp. | Humidity | Pressure | Rain* | Wind** | Luminosity | Snow |
|---|---|---|---|---|---|---|---|
| 1777600448 | 25° C | 70% | 1016.1 hPa | 16.26 mm | - | - | - |
| 1777600209 | 25° C | 70% | 1016.1 hPa | 14.99 mm | - | - | - |
| 1777600148 | 25° C | 70% | 1016.1 hPa | 14.48 mm | - | - | - |
| 1777599900 | 24.44° C | 70% | 1016.3 hPa | 13.46 mm | - | - | - |
| 1777599589 | 24.44° C | 72% | 1016.2 hPa | 12.19 mm | - | - | - |
| 1777599547 | 24.44° C | 72% | 1016.2 hPa | 12.19 mm | - | - | - |
| 1777599279 | 23.89° C | 71% | 1016.2 hPa | 10.41 mm | - | - | - |
| 1777599248 | 23.89° C | 71% | 1016.2 hPa | 10.41 mm | - | - | - |
| 1777598969 | 25° C | 69% | 1016.1 hPa | 9.4 mm | - | - | - |
| 1777598948 | 25° C | 69% | 1016.1 hPa | 9.4 mm | - | - | - |
| 1777598658 | 24.44° C | 71% | 1016.1 hPa | 8.64 mm | - | - | - |
| 1777598647 | 24.44° C | 71% | 1016.1 hPa | 8.64 mm | - | - | - |
| 1777598350 | 24.44° C | 70% | 1016 hPa | 7.11 mm | - | - | - |
| 1777598348 | 24.44° C | 70% | 1016 hPa | 7.11 mm | - | - | - |
| 1777598048 | 24.44° C | 70% | 1016.1 hPa | 6.86 mm | - | - | - |
| 1777598039 | 24.44° C | 70% | 1016.1 hPa | 6.1 mm | - | - | - |
| 1777597747 | 24.44° C | 71% | 1016 hPa | 5.59 mm | - | - | - |
| 1777597447 | 23.89° C | 71% | 1016 hPa | 4.32 mm | - | - | - |
| 1777597419 | 23.89° C | 71% | 1016 hPa | 4.32 mm | - | - | - |
| 1777597148 | 24.44° C | 69% | 1015.9 hPa | 3.05 mm | - | - | - |
| 1777597109 | 24.44° C | 69% | 1015.9 hPa | 3.05 mm | - | - | - |
| 1777596847 | 25° C | 70% | 1015.9 hPa | 3.56 mm | - | - | - |
| 1777596798 | 25° C | 70% | 1015.9 hPa | 3.56 mm | - | - | - |
| 1777596547 | 24.44° C | 70% | 1015.9 hPa | 3.05 mm | - | - | - |
| 1777596489 | 24.44° C | 70% | 1015.8 hPa | 2.79 mm | - | - | - |
* Rain latest hour (hover to see other rain measurements)
** Current wind speed in m/s (hover to see current wind gust speed)